TimeEDT,TemperatureF,Dew PointF,Humidity,Sea Level PressureIn,VisibilityMPH,Wind Direction,Wind SpeedMPH,Gust SpeedMPH,PrecipitationIn,Events,Conditions,WindDirDegrees,DateUTC
12:53 AM,30.0,26.1,85,30.39,10.0,Calm,Calm,-,N/A,,Clear,0,2012-10-13 04:53:00
1:53 AM,30.0,26.1,85,30.40,10.0,Calm,Calm,-,N/A,,Clear,0,2012-10-13 05:53:00
2:53 AM,30.0,24.1,79,30.40,10.0,Calm,Calm,-,N/A,,Clear,0,2012-10-13 06:53:00
3:53 AM,27.0,23.0,85,30.41,10.0,Calm,Calm,-,N/A,,Clear,0,2012-10-13 07:53:00
4:53 AM,27.0,21.9,81,30.42,10.0,Calm,Calm,-,N/A,,Clear,0,2012-10-13 08:53:00
5:53 AM,26.1,21.9,84,30.44,10.0,Calm,Calm,-,N/A,,Clear,0,2012-10-13 09:53:00
6:53 AM,25.0,19.9,81,30.44,10.0,Calm,Calm,-,N/A,,Clear,0,2012-10-13 10:53:00
7:53 AM,28.9,25.0,85,30.45,10.0,ESE,3.5,-,N/A,,Clear,110,2012-10-13 11:53:00
8:53 AM,41.0,28.0,60,30.46,10.0,Calm,Calm,-,N/A,,Clear,0,2012-10-13 12:53:00
9:53 AM,46.0,23.0,40,30.47,10.0,NW,4.6,-,N/A,,Clear,320,2012-10-13 13:53:00
10:53 AM,48.0,21.9,36,30.45,10.0,NW,9.2,-,N/A,,Clear,310,2012-10-13 14:53:00
11:53 AM,50.0,23.0,35,30.44,10.0,NW,6.9,-,N/A,,Clear,320,2012-10-13 15:53:00
12:53 PM,50.0,21.9,33,30.42,10.0,WSW,4.6,-,N/A,,Clear,250,2012-10-13 16:53:00
1:53 PM,53.1,21.0,29,30.39,10.0,WSW,6.9,16.1,N/A,,Clear,240,2012-10-13 17:53:00
2:53 PM,54.0,21.9,29,30.38,10.0,WSW,8.1,20.7,N/A,,Clear,250,2012-10-13 18:53:00
3:53 PM,54.0,21.9,29,30.36,10.0,West,6.9,-,N/A,,Clear,270,2012-10-13 19:53:00
4:53 PM,52.0,21.9,31,30.37,10.0,West,6.9,-,N/A,,Clear,280,2012-10-13 20:53:00
5:53 PM,50.0,24.1,36,30.37,10.0,WSW,3.5,-,N/A,,Clear,250,2012-10-13 21:53:00
6:53 PM,42.1,30.9,65,30.38,10.0,Calm,Calm,-,N/A,,Clear,0,2012-10-13 22:53:00
8:53 PM,39.0,33.1,79,30.36,10.0,Calm,Calm,-,N/A,,Clear,0,2012-10-14 00:53:00
9:53 PM,46.0,30.9,56,30.35,10.0,SSW,3.5,-,N/A,,Partly Cloudy,200,2012-10-14 01:53:00
10:53 PM,48.0,30.0,50,30.34,10.0,SSW,3.5,-,N/A,,Clear,200,2012-10-14 02:53:00